When you browse on this site, cookies collect data to enhance your experience and personalize the content and advertising you see.
Visit our Privacy Policy to learn more. By continuing to use the site, you agree to this use of cookies and data.
  • En España
  • Lista de países
  • Para 7 días
  • Temperatura del agua
  • Mapa Satelital
  • El tiempo en el mapa
  • Informadores
  • user-avatar
    Iniciar sesión

    Tiempo cada hora Charleston

    Hoy, 21 Abril, Domingo

    Tiempo Temperatura Precipitaciones Viento Presión Humedad
    00:00 +6°C° 0 mm 2 mps 741 mmHg 95%
    01:00 +5°C° 0 mm 2 mps 742 mmHg 96%
    02:00 +5°C° 0 mm 2 mps 742 mmHg 97%
    03:00 +5°C° 0 mm 2 mps 743 mmHg 97%
    04:00 +5°C° 0 mm 1 mps 743 mmHg 98%
    05:00 +6°C° 0 mm 1 mps 744 mmHg 96%
    06:00 +6°C° 0 mm 1 mps 745 mmHg 95%
    07:00 +7°C° 0 mm 2 mps 745 mmHg 94%
    08:00 +9°C° 0 mm 1 mps 746 mmHg 88%
    09:00 +10°C° 0 mm 1 mps 746 mmHg 82%
    10:00 +11°C° 0 mm 1 mps 746 mmHg 76%
    11:00 +12°C° 0 mm 1 mps 747 mmHg 72%
    12:00 +13°C° 0 mm 1 mps 747 mmHg 68%
    13:00 +13°C° 0 mm 1 mps 747 mmHg 64%
    14:00 +14°C° 0 mm 1 mps 747 mmHg 64%
    15:00 +14°C° 0 mm 1 mps 747 mmHg 63%
    16:00 +14°C° 0 mm 1 mps 747 mmHg 63%
    17:00 +14°C° 0 mm 1 mps 747 mmHg 68%
    18:00 +12°C° 0 mm 0 mps 747 mmHg 72%
    19:00 +11°C° 0 mm 0 mps 748 mmHg 77%
    20:00 +11°C° 0 mm 0 mps 748 mmHg 79%
    21:00 +10°C° 0 mm 0 mps 749 mmHg 81%
    22:00 +10°C° 0 mm 0 mps 749 mmHg 83%
    23:00 +9°C° 0 mm 0 mps 749 mmHg 86%

    Mañana, 22 Abril, Lunes

    Tiempo Temperatura Precipitaciones Viento Presión Humedad
    00:00 +8°C° 0 mm 0 mps 749 mmHg 90%
    01:00 +8°C° 0 mm 0 mps 749 mmHg 93%
    02:00 +7°C° 0 mm 0 mps 749 mmHg 94%
    03:00 +7°C° 0 mm 0 mps 749 mmHg 94%
    04:00 +6°C° 0 mm 0 mps 749 mmHg 95%
    05:00 +7°C° 0 mm 0 mps 750 mmHg 93%
    06:00 +8°C° 0 mm 0 mps 750 mmHg 91%
    07:00 +8°C° 0 mm 0 mps 750 mmHg 89%
    08:00 +12°C° 0 mm 0 mps 750 mmHg 77%
    09:00 +15°C° 0 mm 0 mps 750 mmHg 65%
    10:00 +18°C° 0 mm 0 mps 750 mmHg 54%
    11:00 +21°C° 0 mm 1 mps 750 mmHg 50%
    12:00 +23°C° 0 mm 1 mps 750 mmHg 46%
    13:00 +24°C° 0 mm 1 mps 749 mmHg 43%
    14:00 +24°C° 0 mm 1 mps 749 mmHg 43%
    15:00 +24°C° 0 mm 1 mps 748 mmHg 42%
    16:00 +25°C° 0 mm 1 mps 748 mmHg 42%
    17:00 +20°C° 0 mm 0 mps 748 mmHg 51%
    18:00 +18°C° 0 mm 0 mps 748 mmHg 59%
    19:00 +16°C° 0 mm 0 mps 748 mmHg 68%
    20:00 +15°C° 0 mm 0 mps 748 mmHg 69%
    21:00 +14°C° 0 mm 0 mps 748 mmHg 70%
    22:00 +15°C° 0 mm 1 mps 748 mmHg 71%
    23:00 +14°C° 0 mm 1 mps 748 mmHg 73%

    Pasado mañana, 23 Abril, Martes

    Tiempo Temperatura Precipitaciones Viento Presión Humedad
    00:00 +14°C° 0 mm 1 mps 748 mmHg 75%
    01:00 +13°C° 0 mm 1 mps 748 mmHg 77%
    02:00 +13°C° 0 mm 1 mps 748 mmHg 78%
    03:00 +13°C° 0 mm 1 mps 747 mmHg 79%
    04:00 +12°C° 0 mm 1 mps 747 mmHg 80%
    05:00 +13°C° 0 mm 1 mps 747 mmHg 78%
    06:00 +13°C° 0 mm 1 mps 747 mmHg 77%
    07:00 +14°C° 0 mm 1 mps 747 mmHg 76%
    08:00 +17°C° 0 mm 2 mps 747 mmHg 68%
    09:00 +20°C° 0 mm 3 mps 747 mmHg 60%
    10:00 +25°C° 0 mm 3 mps 746 mmHg 52%
    11:00 +26°C° 0 mm 4 mps 746 mmHg 49%
    12:00 +27°C° 0 mm 4 mps 745 mmHg 45%
    13:00 +28°C° 0 mm 4 mps 745 mmHg 41%
    14:00 +28°C° 0 mm 4 mps 744 mmHg 41%
    15:00 +28°C° 0 mm 4 mps 744 mmHg 41%
    16:00 +29°C° 0 mm 4 mps 743 mmHg 41%
    17:00 +27°C° 0 mm 4 mps 743 mmHg 49%
    18:00 +24°C° 0 mm 3 mps 743 mmHg 57%
    19:00 +21°C° 0 mm 2 mps 743 mmHg 66%
    20:00 +20°C° 0.3 mm 2 mps 743 mmHg 72%
    21:00 +19°C° 0.3 mm 2 mps 744 mmHg 79%
    22:00 +18°C° 0.3 mm 2 mps 744 mmHg 85%
    23:00 +18°C° 0.7 mm 2 mps 744 mmHg 89%

    24 Abril, Miércoles

    Tiempo Temperatura Precipitaciones Viento Presión Humedad
    00:00 +17°C° 0.7 mm 2 mps 744 mmHg 94%
    01:00 +17°C° 0.7 mm 2 mps 744 mmHg 98%
    02:00 +16°C° 0.1 mm 2 mps 744 mmHg 97%
    03:00 +16°C° 0.1 mm 2 mps 744 mmHg 96%
    04:00 +15°C° 0.1 mm 2 mps 743 mmHg 95%
    05:00 +15°C° 0.1 mm 2 mps 744 mmHg 95%
    06:00 +14°C° 0.1 mm 2 mps 744 mmHg 94%
    07:00 +13°C° 0.1 mm 2 mps 745 mmHg 94%
    08:00 +13°C° 0.1 mm 1 mps 745 mmHg 92%
    09:00 +14°C° 0.1 mm 1 mps 745 mmHg 89%
    10:00 +14°C° 0.1 mm 1 mps 745 mmHg 87%
    11:00 +15°C° 0 mm 1 mps 745 mmHg 81%
    12:00 +18°C° 0 mm 1 mps 745 mmHg 75%
    13:00 +19°C° 0 mm 1 mps 745 mmHg 69%
    14:00 +20°C° 0 mm 1 mps 744 mmHg 65%
    15:00 +21°C° 0 mm 1 mps 744 mmHg 60%
    16:00 +21°C° 0 mm 2 mps 743 mmHg 55%
    17:00 +21°C° 0 mm 1 mps 744 mmHg 62%
    18:00 +19°C° 0 mm 1 mps 744 mmHg 69%
    19:00 +16°C° 0 mm 0 mps 744 mmHg 76%
    20:00 +15°C° 0 mm 0 mps 744 mmHg 79%
    21:00 +14°C° 0 mm 0 mps 744 mmHg 83%
    22:00 +13°C° 0 mm 0 mps 744 mmHg 86%
    23:00 +13°C° 0 mm 0 mps 744 mmHg 87%

    25 Abril, Jueves

    Tiempo Temperatura Precipitaciones Viento Presión Humedad
    00:00 +12°C° 0 mm 0 mps 744 mmHg 89%
    01:00 +12°C° 0 mm 0 mps 744 mmHg 90%
    02:00 +12°C° 0 mm 0 mps 744 mmHg 91%
    03:00 +12°C° 0 mm 0 mps 743 mmHg 93%
    04:00 +13°C° 0 mm 1 mps 743 mmHg 95%
    05:00 +14°C° 0.5 mm 1 mps 743 mmHg 95%
    06:00 +14°C° 0.5 mm 1 mps 743 mmHg 95%
    07:00 +15°C° 0.5 mm 1 mps 744 mmHg 95%
    08:00 +16°C° 0.8 mm 1 mps 743 mmHg 94%
    09:00 +18°C° 0.8 mm 1 mps 743 mmHg 93%
    10:00 +18°C° 0.8 mm 2 mps 743 mmHg 93%
    11:00 +19°C° 1.9 mm 1 mps 743 mmHg 93%
    12:00 +19°C° 1.9 mm 1 mps 743 mmHg 93%
    13:00 +20°C° 1.9 mm 1 mps 742 mmHg 93%
    14:00 +20°C° 0.5 mm 1 mps 742 mmHg 90%
    15:00 +21°C° 0.5 mm 1 mps 741 mmHg 87%
    16:00 +20°C° 0.5 mm 0 mps 741 mmHg 84%
    17:00 +19°C° 1.2 mm 0 mps 741 mmHg 87%
    18:00 +18°C° 1.2 mm 0 mps 741 mmHg 90%
    19:00 +18°C° 1.2 mm 0 mps 741 mmHg 93%
    20:00 +17°C° 1.1 mm 0 mps 741 mmHg 94%
    21:00 +19°C° 1.1 mm 1 mps 741 mmHg 95%
    22:00 +18°C° 1.1 mm 1 mps 741 mmHg 96%
    23:00 +18°C° 1.2 mm 1 mps 740 mmHg 96%

    26 Abril, Viernes

    Tiempo Temperatura Precipitaciones Viento Presión Humedad
    00:00 +18°C° 1.2 mm 1 mps 740 mmHg 97%
    01:00 +17°C° 1.2 mm 2 mps 740 mmHg 97%
    02:00 +16°C° 1.5 mm 2 mps 739 mmHg 97%
    03:00 +16°C° 1.5 mm 2 mps 739 mmHg 96%
    04:00 +16°C° 1.5 mm 2 mps 738 mmHg 96%
    05:00 +16°C° 2 mm 2 mps 738 mmHg 97%
    06:00 +16°C° 2 mm 2 mps 738 mmHg 97%
    07:00 +16°C° 2 mm 2 mps 738 mmHg 97%
    08:00 +16°C° 0.8 mm 2 mps 739 mmHg 97%
    09:00 +16°C° 0.8 mm 2 mps 739 mmHg 96%
    10:00 +17°C° 0.8 mm 3 mps 739 mmHg 96%
    11:00 +18°C° 0.2 mm 4 mps 740 mmHg 89%
    12:00 +19°C° 0.2 mm 4 mps 740 mmHg 81%
    13:00 +20°C° 0.2 mm 5 mps 741 mmHg 74%
    14:00 +20°C° 0.1 mm 5 mps 741 mmHg 68%
    15:00 +20°C° 0.1 mm 5 mps 742 mmHg 62%
    16:00 +20°C° 0.1 mm 4 mps 742 mmHg 55%
    17:00 +18°C° 0 mm 3 mps 743 mmHg 60%
    18:00 +17°C° 0 mm 3 mps 743 mmHg 65%
    19:00 +15°C° 0 mm 2 mps 744 mmHg 69%
    20:00 +14°C° 0 mm 2 mps 745 mmHg 74%
    21:00 +12°C° 0 mm 1 mps 745 mmHg 79%
    22:00 +11°C° 0 mm 1 mps 746 mmHg 83%
    23:00 +10°C° 0 mm 1 mps 746 mmHg 85%
    Mostrar más